| time (UTC) | temp C | wind direction | speed KPH | gust KPH | rain 1hr cm | rain 24hr cm | rain mn cm | humidity % | barometer mb |
| 20260901035826 | 30 | 197 | 4.8 | 4.8 | 0.00 | 0.00 | 0.00 | 64 | 1018.8 |
| 20260901035326 | 30 | 205 | 4.8 | 4.8 | 0.00 | 0.00 | 0.00 | 64 | 1018.6 |
| 20260901034824 | 30 | 168 | 8.0 | 9.7 | 0.00 | 0.00 | 0.00 | 63 | 1018.7 |
| 20260901034320 | 30 | 120 | 6.4 | 8.0 | 0.00 | 0.00 | 0.00 | 62 | 1018.7 |
| 20260901033820 | 30 | 131 | 8.0 | 9.7 | 0.00 | 0.00 | 0.00 | 61 | 1018.5 |
| 20260901033319 | 30 | 151 | 3.2 | 8.0 | 0.00 | 0.00 | 0.00 | 59 | 1018.6 |
| 20260901032818 | 30 | 201 | 3.2 | 4.8 | 0.00 | 0.00 | 0.00 | 57 | 1018.5 |
| 20260901032317 | 30 | 218 | 3.2 | 3.2 | 0.00 | 0.00 | 0.00 | 55 | 1018.5 |
| 20260901031812 | 30 | 187 | 4.8 | 4.8 | 0.00 | 0.00 | 0.00 | 54 | 1018.2 |
| 20260901031308 | 30 | 205 | 4.8 | 4.8 | 0.00 | 0.00 | 0.00 | 54 | 1018.3 |
| 20260901030808 | 30 | 221 | 4.8 | 4.8 | 0.00 | 0.00 | 0.00 | 54 | 1018.3 |
| 20260901030303 | 30 | 183 | 4.8 | 4.8 | 0.00 | 0.00 | 0.00 | 56 | 1018.1 |
| 20260901025802 | 29 | 197 | 1.6 | 3.2 | 0.00 | 0.00 | 0.00 | 57 | 1018.0 |
| 20260901025257 | 29 | 217 | 0.0 | 0.0 | 0.00 | 0.00 | 0.00 | 56 | 1018.0 |
| 20260901024752 | 30 | 217 | 0.0 | 0.0 | 0.00 | 0.00 | 0.00 | 55 | 1017.9 |
| 20260901024251 | 30 | 217 | 0.0 | 0.0 | 0.00 | 0.00 | 0.00 | 55 | 1017.5 |
| 20260901023749 | 30 | 217 | 0.0 | 0.0 | 0.00 | 0.00 | 0.00 | 54 | 1017.6 |
| 20260901023244 | 30 | 207 | 0.0 | 0.0 | 0.00 | 0.00 | 0.00 | 54 | 1017.6 |
| 20260901022740 | 29 | 201 | 0.0 | 0.0 | 0.00 | 0.00 | 0.00 | 55 | 1017.4 |
| 20260901022235 | 29 | 221 | 0.0 | 0.0 | 0.00 | 0.00 | 0.00 | 56 | 1017.3 |
| 20260901021730 | 30 | 222 | 0.0 | 0.0 | 0.00 | 0.00 | 0.00 | 57 | 1017.4 |
| 20260901021226 | 30 | 224 | 0.0 | 0.0 | 0.00 | 0.00 | 0.00 | 56 | 1017.4 |
| 20260901020721 | 30 | 224 | 0.0 | 0.0 | 0.00 | 0.00 | 0.00 | 56 | 1017.1 |
| 20260901020216 | 30 | 222 | 0.0 | 0.0 | 0.00 | 0.00 | 0.00 | 55 | 1017.1 |
| 20260901015711 | 30 | 221 | 0.0 | 0.0 | 0.00 | 0.00 | 0.00 | 54 | 1017.1 |
| 20260901015207 | 31 | 224 | 0.0 | 0.0 | 0.00 | 0.00 | 0.00 | 52 | 1016.8 |
| 20260901014707 | 31 | 222 | 0.0 | 0.0 | 0.00 | 0.00 | 0.00 | 51 | 1016.8 |
| 20260901014203 | 31 | 215 | 0.0 | 0.0 | 0.00 | 0.00 | 0.00 | 51 | 1016.7 |
| 20260901013658 | 31 | 210 | 0.0 | 0.0 | 0.00 | 0.00 | 0.00 | 52 | 1016.6 |
| 20260901013154 | 31 | 209 | 0.0 | 0.0 | 0.00 | 0.00 | 0.00 | 53 | 1016.5 |
| 20260901012649 | 31 | 219 | 0.0 | 0.0 | 0.00 | 0.00 | 0.00 | 52 | 1016.7 |
| 20260901012144 | 32 | 219 | 0.0 | 0.0 | 0.00 | 0.00 | 0.00 | 51 | 1016.7 |
| 20260901011640 | 32 | 219 | 0.0 | 0.0 | 0.00 | 0.00 | 0.00 | 51 | 1016.5 |
| 20260901011138 | 32 | 218 | 0.0 | 0.0 | 0.00 | 0.00 | 0.00 | 50 | 1016.6 |
| 20260901010633 | 32 | 217 | 1.6 | 3.2 | 0.00 | 0.00 | 0.00 | 49 | 1016.4 |
| 20260901010133 | 32 | 219 | 0.0 | 0.0 | 0.00 | 0.00 | 0.00 | 49 | 1016.5 |
| 20260901005632 | 33 | 211 | 0.0 | 0.0 | 0.00 | 0.00 | 0.00 | 49 | 1016.5 |
| 20260901005128 | 33 | 217 | 0.0 | 0.0 | 0.00 | 0.00 | 0.00 | 49 | 1016.6 |
| 20260901004627 | 33 | 216 | 1.6 | 1.6 | 0.00 | 0.00 | 0.00 | 48 | 1016.5 |
| 20260901004122 | 33 | 194 | 1.6 | 1.6 | 0.00 | 0.00 | 0.00 | 47 | 1016.7 |
| 20260901003617 | 33 | 199 | 1.6 | 3.2 | 0.00 | 0.00 | 0.00 | 48 | 1016.6 |
| 20260901003115 | 33 | 216 | 1.6 | 1.6 | 0.00 | 0.00 | 0.00 | 47 | 1016.4 |
| 20260901002610 | 34 | 211 | 0.0 | 0.0 | 0.00 | 0.00 | 0.00 | 46 | 1016.4 |
| 20260901002105 | 34 | 164 | 3.2 | 3.2 | 0.00 | 0.00 | 0.00 | 46 | 1016.3 |
| 20260901001600 | 34 | 168 | 1.6 | 3.2 | 0.00 | 0.00 | 0.00 | 46 | 1016.3 |
| 20260901001055 | 34 | 215 | 0.0 | 1.6 | 0.00 | 0.00 | 0.00 | 46 | 1016.1 |
| 20260901000550 | 34 | 189 | 3.2 | 3.2 | 0.00 | 0.00 | 0.00 | 46 | 1016.1 |
| 20260901000046 | 34 | 212 | 1.6 | 3.2 | 0.00 | 0.00 | 0.00 | 47 | 1016.4 |
| 20260831235545 | 34 | 181 | 3.2 | 3.2 | 0.00 | 0.00 | 0.00 | 46 | 1016.3 |
| 20260831235040 | 34 | 171 | 6.4 | 9.7 | 0.00 | 0.00 | 0.00 | 45 | 1016.2 |
| 20260831234534 | 34 | 207 | 1.6 | 1.6 | 0.00 | 0.00 | 0.00 | 46 | 1016.5 |
| 20260831234030 | 35 | 142 | 4.8 | 4.8 | 0.00 | 0.00 | 0.00 | 45 | 1016.3 |
| 20260831233525 | 35 | 157 | 6.4 | 8.0 | 0.00 | 0.00 | 0.00 | 45 | 1016.3 |
| 20260831233021 | 35 | 193 | 1.6 | 3.2 | 0.00 | 0.00 | 0.00 | 45 | 1016.4 |
| 20260831232516 | 35 | 213 | 8.0 | 11.3 | 0.00 | 0.00 | 0.00 | 45 | 1016.4 |
| 20260831232012 | 35 | 162 | 4.8 | 8.0 | 0.00 | 0.00 | 0.00 | 44 | 1016.3 |
| 20260831231509 | 36 | 209 | 8.0 | 11.3 | 0.00 | 0.00 | 0.00 | 43 | 1016.3 |
| 20260831231004 | 36 | 177 | 8.0 | 11.3 | 0.00 | 0.00 | 0.00 | 43 | 1016.3 |
| 20260831230500 | 36 | 196 | 4.8 | 4.8 | 0.00 | 0.00 | 0.00 | 43 | 1016.5 |
| 20260831225959 | 36 | 198 | 3.2 | 4.8 | 0.00 | 0.00 | 0.00 | 42 | 1016.1 |
| 20260831225455 | 36 | 191 | 3.2 | 3.2 | 0.00 | 0.00 | 0.00 | 41 | 1016.3 |
| 20260831224954 | 36 | 199 | 0.0 | 1.6 | 0.00 | 0.00 | 0.00 | 40 | 1016.5 |
| 20260831224449 | 36 | 195 | 4.8 | 4.8 | 0.00 | 0.00 | 0.00 | 40 | 1016.3 |
| 20260831223944 | 36 | 155 | 4.8 | 8.0 | 0.00 | 0.00 | 0.00 | 41 | 1016.5 |
| 20260831223439 | 36 | 208 | 8.0 | 12.9 | 0.00 | 0.00 | 0.00 | 41 | 1016.3 |
| 20260831222936 | 36 | 160 | 3.2 | 4.8 | 0.00 | 0.00 | 0.00 | 41 | 1016.5 |
| 20260831222431 | 36 | 114 | 8.0 | 11.3 | 0.00 | 0.00 | 0.00 | 41 | 1016.5 |
| 20260831221926 | 36 | 216 | 1.6 | 3.2 | 0.00 | 0.00 | 0.00 | 41 | 1016.5 |
| 20260831221422 | 36 | 235 | 1.6 | 3.2 | 0.00 | 0.00 | 0.00 | 43 | 1016.5 |
| 20260831220917 | 36 | 194 | 4.8 | 4.8 | 0.00 | 0.00 | 0.00 | 40 | 1016.5 |
| 20260831220412 | 36 | 183 | 0.0 | 1.6 | 0.00 | 0.00 | 0.00 | 40 | 1016.6 |
| 20260831215907 | 36 | 171 | 6.4 | 9.7 | 0.00 | 0.00 | 0.00 | 40 | 1016.8 |
| 20260831215403 | 35 | 223 | 3.2 | 4.8 | 0.00 | 0.00 | 0.00 | 42 | 1017.0 |
| 20260831214859 | 36 | 153 | 1.6 | 3.2 | 0.00 | 0.00 | 0.00 | 41 | 1016.6 |
| 20260831214356 | 36 | 197 | 8.0 | 11.3 | 0.00 | 0.00 | 0.00 | 41 | 1016.8 |
| 20260831213852 | 36 | 205 | 4.8 | 4.8 | 0.00 | 0.00 | 0.00 | 41 | 1017.0 |
| 20260831213348 | 36 | 266 | 1.6 | 3.2 | 0.00 | 0.00 | 0.00 | 43 | 1017.1 |
| 20260831212843 | 36 | 221 | 3.2 | 4.8 | 0.00 | 0.00 | 0.00 | 43 | 1017.0 |
| 20260831212340 | 35 | 205 | 1.6 | 1.6 | 0.00 | 0.00 | 0.00 | 46 | 1017.2 |
| 20260831211838 | 35 | 182 | 4.8 | 4.8 | 0.00 | 0.00 | 0.00 | 45 | 1017.2 |
| 20260831211333 | 35 | 198 | 3.2 | 3.2 | 0.00 | 0.00 | 0.00 | 45 | 1017.4 |
| 20260831210833 | 36 | 211 | 8.0 | 11.3 | 0.00 | 0.00 | 0.00 | 44 | 1017.5 |
| 20260831210329 | 36 | 155 | 6.4 | 11.3 | 0.00 | 0.00 | 0.00 | 44 | 1017.4 |
| 20260831205829 | 36 | 187 | 6.4 | 8.0 | 0.00 | 0.00 | 0.00 | 43 | 1017.7 |
| 20260831205326 | 35 | 220 | 6.4 | 9.7 | 0.00 | 0.00 | 0.00 | 45 | 1017.7 |
| 20260831204825 | 36 | 226 | 0.0 | 0.0 | 0.00 | 0.00 | 0.00 | 47 | 1017.8 |
| 20260831204324 | 36 | 176 | 8.0 | 11.3 | 0.00 | 0.00 | 0.00 | 43 | 1018.0 |
| 20260831203824 | 36 | 220 | 3.2 | 4.8 | 0.00 | 0.00 | 0.00 | 44 | 1017.9 |
| 20260831203319 | 36 | 129 | 8.0 | 11.3 | 0.00 | 0.00 | 0.00 | 43 | 1018.3 |
| 20260831202817 | 36 | 216 | 6.4 | 9.7 | 0.00 | 0.00 | 0.00 | 44 | 1018.2 |
| 20260831202313 | 36 | 194 | 9.7 | 12.9 | 0.00 | 0.00 | 0.00 | 44 | 1018.3 |
| 20260831201812 | 36 | 224 | 4.8 | 4.8 | 0.00 | 0.00 | 0.00 | 44 | 1018.4 |
| 20260831201311 | 35 | 167 | 6.4 | 9.7 | 0.00 | 0.00 | 0.00 | 45 | 1018.4 |
| 20260831200807 | 35 | 116 | 11.3 | 12.9 | 0.00 | 0.00 | 0.00 | 46 | 1018.6 |
| 20260831200302 | 36 | 168 | 8.0 | 9.7 | 0.00 | 0.00 | 0.00 | 45 | 1018.7 |
| 20260831195757 | 36 | 154 | 9.7 | 11.3 | 0.00 | 0.00 | 0.00 | 46 | 1018.7 |
| 20260831195253 | 36 | 188 | 8.0 | 11.3 | 0.00 | 0.00 | 0.00 | 47 | 1018.7 |
| 20260831194748 | 36 | 232 | 4.8 | 4.8 | 0.00 | 0.00 | 0.00 | 47 | 1019.0 |
| 20260831194244 | 36 | 249 | 3.2 | 4.8 | 0.00 | 0.00 | 0.00 | 47 | 1018.9 |
| 20260831193737 | 35 | 155 | 3.2 | 3.2 | 0.00 | 0.00 | 0.00 | 47 | 1018.9 |
| 20260831193233 | 35 | 194 | 4.8 | 8.0 | 0.00 | 0.00 | 0.00 | 47 | 1019.1 |
| 20260831192727 | 36 | 120 | 9.7 | 12.9 | 0.00 | 0.00 | 0.00 | 47 | 1019.0 |
| 20260831192222 | 35 | 212 | 1.6 | 3.2 | 0.00 | 0.00 | 0.00 | 48 | 1019.1 |
| 20260831191719 | 35 | 280 | 3.2 | 4.8 | 0.00 | 0.00 | 0.00 | 49 | 1019.3 |
| 20260831191215 | 35 | 222 | 4.8 | 11.3 | 0.00 | 0.00 | 0.00 | 49 | 1019.3 |
| 20260831190710 | 35 | 276 | 4.8 | 8.0 | 0.00 | 0.00 | 0.00 | 48 | 1019.3 |
| 20260831190209 | 35 | 151 | 9.7 | 12.9 | 0.00 | 0.00 | 0.00 | 47 | 1019.4 |
| 20260831185704 | 35 | 181 | 8.0 | 11.3 | 0.00 | 0.00 | 0.00 | 48 | 1019.4 |
| 20260831185159 | 35 | 162 | 8.0 | 9.7 | 0.00 | 0.00 | 0.00 | 51 | 1019.6 |
| 20260831184658 | 35 | 184 | 9.7 | 12.9 | 0.00 | 0.00 | 0.00 | 50 | 1019.5 |
| 20260831184155 | 35 | 189 | 4.8 | 8.0 | 0.00 | 0.00 | 0.00 | 48 | 1019.8 |
| 20260831183654 | 35 | 170 | 8.0 | 9.7 | 0.00 | 0.00 | 0.00 | 49 | 1019.7 |
| 20260831183153 | 35 | 191 | 8.0 | 11.3 | 0.00 | 0.00 | 0.00 | 50 | 1019.6 |
| 20260831182652 | 35 | 200 | 6.4 | 8.0 | 0.00 | 0.00 | 0.00 | 50 | 1019.8 |
| 20260831182148 | 35 | 156 | 14.5 | 16.1 | 0.00 | 0.00 | 0.00 | 48 | 1019.8 |
| 20260831181644 | 35 | 176 | 9.7 | 12.9 | 0.00 | 0.00 | 0.00 | 50 | 1019.7 |
| 20260831181143 | 35 | 192 | 4.8 | 4.8 | 0.00 | 0.00 | 0.00 | 52 | 1019.9 |
| 20260831180639 | 35 | 191 | 1.6 | 3.2 | 0.00 | 0.00 | 0.00 | 53 | 1019.9 |
| 20260831180134 | 35 | 182 | 4.8 | 8.0 | 0.00 | 0.00 | 0.00 | 53 | 1020.0 |
| 20260831175628 | 35 | 163 | 6.4 | 9.7 | 0.00 | 0.00 | 0.00 | 54 | 1020.2 |
| 20260831175125 | 34 | 237 | 1.6 | 1.6 | 0.00 | 0.00 | 0.00 | 59 | 1020.1 |
| 20260831174625 | 35 | 168 | 6.4 | 8.0 | 0.00 | 0.00 | 0.00 | 53 | 1020.2 |
| 20260831174120 | 35 | 199 | 4.8 | 4.8 | 0.00 | 0.00 | 0.00 | 53 | 1020.3 |
| 20260831173618 | 34 | 200 | 3.2 | 3.2 | 0.00 | 0.00 | 0.00 | 55 | 1020.3 |
| 20260831173115 | 33 | 181 | 6.4 | 8.0 | 0.00 | 0.00 | 0.00 | 56 | 1020.3 |
| 20260831172614 | 33 | 151 | 8.0 | 11.3 | 0.00 | 0.00 | 0.00 | 56 | 1020.5 |
| 20260831172114 | 33 | 104 | 9.7 | 11.3 | 0.00 | 0.00 | 0.00 | 56 | 1020.4 |
| 20260831171610 | 33 | 220 | 1.6 | 1.6 | 0.00 | 0.00 | 0.00 | 57 | 1020.3 |
| 20260831171107 | 33 | 214 | 4.8 | 8.0 | 0.00 | 0.00 | 0.00 | 56 | 1020.7 |
| 20260831170603 | 33 | 133 | 4.8 | 8.0 | 0.00 | 0.00 | 0.00 | 59 | 1020.7 |
| 20260831170100 | 33 | 196 | 3.2 | 3.2 | 0.00 | 0.00 | 0.00 | 58 | 1020.8 |
| 20260831165555 | 33 | 178 | 1.6 | 1.6 | 0.00 | 0.00 | 0.00 | 58 | 1020.7 |
| 20260831165052 | 33 | 211 | 9.7 | 14.5 | 0.00 | 0.00 | 0.00 | 57 | 1020.6 |
| 20260831164547 | 33 | 201 | 8.0 | 9.7 | 0.00 | 0.00 | 0.00 | 58 | 1020.8 |
| 20260831164043 | 33 | 193 | 3.2 | 4.8 | 0.00 | 0.00 | 0.00 | 60 | 1020.6 |
| 20260831163537 | 32 | 120 | 8.0 | 11.3 | 0.00 | 0.00 | 0.00 | 62 | 1020.7 |
| 20260831163033 | 32 | 184 | 3.2 | 3.2 | 0.00 | 0.00 | 0.00 | 61 | 1020.8 |
| 20260831162532 | 33 | 131 | 8.0 | 16.1 | 0.00 | 0.00 | 0.00 | 60 | 1020.6 |
| 20260831162030 | 33 | 213 | 4.8 | 8.0 | 0.00 | 0.00 | 0.00 | 59 | 1020.8 |
| 20260831161527 | 33 | 198 | 4.8 | 4.8 | 0.00 | 0.00 | 0.00 | 63 | 1020.6 |
| 20260831161023 | 32 | 193 | 0.0 | 0.0 | 0.00 | 0.00 | 0.00 | 66 | 1020.6 |
| 20260831160522 | 31 | 173 | 3.2 | 3.2 | 0.00 | 0.00 | 0.00 | 65 | 1020.7 |
| 20260831160017 | 31 | 196 | 8.0 | 12.9 | 0.00 | 0.00 | 0.00 | 66 | 1020.5 |
| 20260831155512 | 31 | 201 | 3.2 | 3.2 | 0.00 | 0.00 | 0.00 | 69 | 1020.7 |
| 20260831155007 | 32 | 222 | 0.0 | 0.0 | 0.00 | 0.00 | 0.00 | 68 | 1021.0 |
| 20260831154503 | 32 | 199 | 4.8 | 8.0 | 0.00 | 0.00 | 0.00 | 66 | 1020.7 |
| 20260831154002 | 31 | 201 | 3.2 | 3.2 | 0.00 | 0.00 | 0.00 | 68 | 1020.4 |
| 20260831153457 | 30 | 189 | 4.8 | 4.8 | 0.00 | 0.00 | 0.00 | 72 | 1020.6 |
| 20260831152954 | 30 | 177 | 4.8 | 4.8 | 0.00 | 0.00 | 0.00 | 74 | 1020.8 |
| 20260831152449 | 30 | 198 | 1.6 | 1.6 | 0.00 | 0.00 | 0.00 | 73 | 1020.5 |
| 20260831151944 | 30 | 160 | 1.6 | 3.2 | 0.00 | 0.00 | 0.00 | 71 | 1020.5 |
| 20260831151443 | 31 | 199 | 3.2 | 3.2 | 0.00 | 0.00 | 0.00 | 73 | 1020.6 |
| 20260831150938 | 30 | 226 | 1.6 | 1.6 | 0.00 | 0.00 | 0.00 | 73 | 1020.5 |
| 20260831150434 | 30 | 168 | 6.4 | 8.0 | 0.00 | 0.00 | 0.00 | 74 | 1020.4 |
| 20260831145933 | 30 | 209 | 1.6 | 1.6 | 0.00 | 0.00 | 0.00 | 73 | 1020.4 |
| 20260831145430 | 30 | 184 | 4.8 | 8.0 | 0.00 | 0.00 | 0.00 | 75 | 1020.3 |
| 20260831144925 | 30 | 160 | 3.2 | 4.8 | 0.00 | 0.00 | 0.00 | 76 | 1020.5 |
| 20260831144421 | 30 | 179 | 4.8 | 9.7 | 0.00 | 0.00 | 0.00 | 75 | 1020.3 |
| 20260831143916 | 30 | 207 | 4.8 | 4.8 | 0.00 | 0.00 | 0.00 | 75 | 1020.1 |
| 20260831143411 | 30 | 156 | 4.8 | 4.8 | 0.00 | 0.00 | 0.00 | 75 | 1020.1 |
| 20260831142907 | 30 | 205 | 3.2 | 4.8 | 0.00 | 0.00 | 0.00 | 77 | 1020.1 |
| 20260831142402 | 30 | 170 | 3.2 | 4.8 | 0.00 | 0.00 | 0.00 | 77 | 1019.9 |
| 20260831141856 | 30 | 223 | 6.4 | 9.7 | 0.00 | 0.00 | 0.00 | 77 | 1020.3 |
| 20260831141350 | 30 | 203 | 3.2 | 4.8 | 0.00 | 0.00 | 0.00 | 79 | 1019.9 |
| 20260831140846 | 29 | 178 | 3.2 | 4.8 | 0.00 | 0.00 | 0.00 | 79 | 1020.0 |
| 20260831140345 | 29 | 193 | 1.6 | 3.2 | 0.00 | 0.00 | 0.00 | 81 | 1020.0 |
| 20260831135844 | 28 | 223 | 0.0 | 1.6 | 0.00 | 0.00 | 0.00 | 83 | 1019.9 |
| 20260831135334 | 28 | 165 | 3.2 | 4.8 | 0.00 | 0.00 | 0.00 | 83 | 1019.9 |
| 20260831134829 | 28 | 193 | 4.8 | 4.8 | 0.00 | 0.00 | 0.00 | 84 | 1020.0 |
| 20260831134326 | 28 | 163 | 4.8 | 8.0 | 0.00 | 0.00 | 0.00 | 83 | 1020.0 |
| 20260831133824 | 28 | 204 | 4.8 | 4.8 | 0.00 | 0.00 | 0.00 | 84 | 1019.9 |
| 20260831133324 | 28 | 213 | 3.2 | 4.8 | 0.00 | 0.00 | 0.00 | 86 | 1019.6 |
| 20260831132820 | 27 | 219 | 0.0 | 0.0 | 0.00 | 0.00 | 0.00 | 88 | 1019.6 |
| 20260831132315 | 27 | 220 | 0.0 | 0.0 | 0.00 | 0.00 | 0.00 | 90 | 1019.8 |
| 20260831131809 | -17 | 0.0 | 0.0 | 0.00 | 0.00 | 0.00 | 1019.7 | ||
| 20260831131305 | -17 | 0.0 | 0.0 | 0.00 | 0.00 | 0.00 | 1019.8 | ||
| 20260831130759 | -17 | 0.0 | 0.0 | 0.00 | 0.00 | 0.00 | 1019.7 | ||
| 20260831130255 | 24 | 212 | 0.0 | 0.0 | 0.00 | 0.00 | 0.00 | 99 | 1019.6 |
| 20260831125754 | 24 | 212 | 0.0 | 0.0 | 0.00 | 0.00 | 0.00 | 99 | 1019.6 |
| 20260831125250 | 24 | 211 | 0.0 | 1.6 | 0.00 | 0.00 | 0.00 | 99 | 1019.8 |
| 20260831124744 | 23 | 216 | 0.0 | 0.0 | 0.00 | 0.00 | 0.00 | 99 | 1019.5 |
| 20260831124241 | 23 | 212 | 0.0 | 0.0 | 0.00 | 0.00 | 0.00 | 99 | 1019.5 |
| 20260831123740 | 23 | 218 | 0.0 | 0.0 | 0.00 | 0.00 | 0.00 | 99 | 1019.4 |
| 20260831123239 | 23 | 218 | 0.0 | 0.0 | 0.00 | 0.00 | 0.00 | 99 | 1019.5 |
| 20260831122733 | 23 | 218 | 0.0 | 0.0 | 0.00 | 0.00 | 0.00 | 99 | 1019.5 |
| 20260831122230 | 23 | 218 | 0.0 | 0.0 | 0.00 | 0.00 | 0.00 | 99 | 1019.5 |
| 20260831121729 | 23 | 216 | 0.0 | 0.0 | 0.00 | 0.00 | 0.00 | 99 | 1019.6 |
| 20260831121226 | 23 | 218 | 0.0 | 0.0 | 0.00 | 0.00 | 0.00 | 99 | 1019.5 |
| 20260831120721 | 23 | 222 | 0.0 | 0.0 | 0.00 | 0.00 | 0.00 | 99 | 1019.3 |
| 20260831120215 | 23 | 222 | 0.0 | 0.0 | 0.00 | 0.00 | 0.00 | 99 | 1019.3 |
| 20260831115711 | 23 | 222 | 0.0 | 0.0 | 0.00 | 0.00 | 0.00 | 99 | 1019.2 |
| 20260831115207 | 23 | 222 | 0.0 | 0.0 | 0.00 | 0.00 | 0.00 | 99 | 1019.5 |
| 20260831114706 | 23 | 222 | 0.0 | 0.0 | 0.00 | 0.00 | 0.00 | 99 | 1019.2 |
| 20260831114205 | 23 | 222 | 0.0 | 0.0 | 0.00 | 0.00 | 0.00 | 98 | 1019.3 |
| 20260831113701 | 23 | 222 | 0.0 | 0.0 | 0.00 | 0.00 | 0.00 | 98 | 1019.3 |
| 20260831113155 | 23 | 222 | 0.0 | 0.0 | 0.00 | 0.00 | 0.00 | 98 | 1019.3 |
| 20260831112654 | 23 | 222 | 0.0 | 0.0 | 0.00 | 0.00 | 0.00 | 98 | 1019.3 |
| 20260831112150 | -17 | 0.0 | 0.0 | 0.00 | 0.00 | 0.00 | 1019.5 | ||
| 20260831111645 | 23 | 223 | 0.0 | 0.0 | 0.00 | 0.00 | 0.00 | 97 | 1019.6 |
| 20260831111141 | 23 | 223 | 0.0 | 0.0 | 0.00 | 0.00 | 0.00 | 97 | 1019.4 |
| 20260831110637 | 23 | 223 | 0.0 | 0.0 | 0.00 | 0.00 | 0.00 | 97 | 1019.1 |
| 20260831110132 | -17 | 0.0 | 0.0 | 0.00 | 0.00 | 0.00 | 1019.2 | ||
| 20260831105631 | -17 | 0.0 | 0.0 | 0.00 | 0.00 | 0.00 | 1019.2 | ||
| 20260831105126 | -17 | 0.0 | 0.0 | 0.00 | 0.00 | 0.00 | 1019.3 | ||
| 20260831104621 | -17 | 0.0 | 0.0 | 0.00 | 0.00 | 0.00 | 1019.5 | ||
| 20260831104118 | -17 | 0.0 | 0.0 | 0.00 | 0.00 | 0.00 | 1019.2 | ||
| 20260831103613 | 24 | 222 | 0.0 | 0.0 | 0.00 | 0.00 | 0.00 | 95 | 1019.2 |
| 20260831103109 | 24 | 222 | 0.0 | 0.0 | 0.00 | 0.00 | 0.00 | 95 | 1019.4 |
| 20260831102608 | 24 | 222 | 0.0 | 0.0 | 0.00 | 0.00 | 0.00 | 95 | 1019.4 |
| 20260831102104 | 24 | 223 | 0.0 | 0.0 | 0.00 | 0.00 | 0.00 | 95 | 1019.5 |
| 20260831101603 | 24 | 223 | 0.0 | 0.0 | 0.00 | 0.00 | 0.00 | 95 | 1019.5 |
| 20260831101100 | 24 | 223 | 0.0 | 0.0 | 0.00 | 0.00 | 0.00 | 95 | 1019.1 |
| 20260831100555 | 24 | 223 | 0.0 | 0.0 | 0.00 | 0.00 | 0.00 | 94 | 1019.2 |
| 20260831100051 | -17 | 0.0 | 0.0 | 0.00 | 0.00 | 0.00 | 1019.2 | ||
| 20260831095549 | -17 | 0.0 | 0.0 | 0.00 | 0.00 | 0.00 | 1019.1 | ||
| 20260831095044 | 25 | 226 | 0.0 | 0.0 | 0.00 | 0.00 | 0.00 | 93 | 1019.2 |
| 20260831094540 | 25 | 226 | 0.0 | 0.0 | 0.00 | 0.00 | 0.00 | 93 | 1019.3 |
| 20260831094036 | 25 | 226 | 0.0 | 0.0 | 0.00 | 0.00 | 0.00 | 93 | 1019.2 |
| 20260831093531 | 25 | 226 | 0.0 | 0.0 | 0.00 | 0.00 | 0.00 | 93 | 1019.5 |
| 20260831093027 | 25 | 226 | 0.0 | 0.0 | 0.00 | 0.00 | 0.00 | 93 | 1019.5 |
| 20260831092523 | 25 | 223 | 0.0 | 0.0 | 0.00 | 0.00 | 0.00 | 92 | 1019.1 |
| 20260831092019 | 25 | 223 | 0.0 | 0.0 | 0.00 | 0.00 | 0.00 | 92 | 1019.1 |
| 20260831091513 | -17 | 0.0 | 0.0 | 0.00 | 0.00 | 0.00 | 1019.2 | ||
| 20260831091009 | -17 | 0.0 | 0.0 | 0.00 | 0.00 | 0.00 | 1019.2 | ||
| 20260831090504 | -17 | 0.0 | 0.0 | 0.00 | 0.00 | 0.00 | 1019.3 | ||
| 20260831090000 | -17 | 0.0 | 0.0 | 0.00 | 0.00 | 0.00 | 1019.3 | ||
| 20260831085455 | -17 | 0.0 | 0.0 | 0.00 | 0.00 | 0.00 | 1019.3 | ||
| 20260831084954 | 25 | 199 | 3.2 | 4.8 | 0.00 | 0.00 | 0.00 | 89 | 1019.0 |
| 20260831084451 | 25 | 199 | 3.2 | 4.8 | 0.00 | 0.00 | 0.00 | 89 | 1019.3 |
| 20260831083948 | 25 | 199 | 3.2 | 4.8 | 0.00 | 0.00 | 0.00 | 89 | 1019.3 |
| 20260831083442 | 25 | 209 | 0.0 | 1.6 | 0.00 | 0.00 | 0.00 | 88 | 1019.4 |
| 20260831082942 | -17 | 0.0 | 0.0 | 0.00 | 0.00 | 0.00 | 1019.3 | ||
| 20260831082443 | -17 | 0.0 | 0.0 | 0.00 | 0.00 | 0.00 | 1019.1 | ||
| 20260831081936 | 25 | 218 | 0.0 | 0.0 | 0.00 | 0.00 | 0.00 | 86 | 1019.1 |
| 20260831081432 | 25 | 218 | 0.0 | 0.0 | 0.00 | 0.00 | 0.00 | 86 | 1019.3 |
| 20260831080928 | 25 | 218 | 0.0 | 0.0 | 0.00 | 0.00 | 0.00 | 86 | 1019.1 |
| 20260831080423 | 26 | 207 | 1.6 | 1.6 | 0.00 | 0.00 | 0.00 | 85 | 1019.0 |
| 20260831075919 | 26 | 207 | 1.6 | 1.6 | 0.00 | 0.00 | 0.00 | 85 | 1019.2 |
| 20260831075414 | 26 | 207 | 1.6 | 1.6 | 0.00 | 0.00 | 0.00 | 85 | 1019.1 |
| 20260831074909 | -17 | 0.0 | 0.0 | 0.00 | 0.00 | 0.00 | 1019.2 | ||
| 20260831074408 | 26 | 226 | 0.0 | 0.0 | 0.00 | 0.00 | 0.00 | 83 | 1019.1 |
| 20260831073903 | 26 | 226 | 0.0 | 0.0 | 0.00 | 0.00 | 0.00 | 83 | 1019.4 |
| 20260831073403 | 26 | 226 | 0.0 | 0.0 | 0.00 | 0.00 | 0.00 | 83 | 1019.1 |
| 20260831072857 | -17 | 0.0 | 0.0 | 0.00 | 0.00 | 0.00 | 1019.2 | ||
| 20260831072353 | 26 | 207 | 0.0 | 1.6 | 0.00 | 0.00 | 0.00 | 82 | 1019.4 |
| 20260831071849 | 26 | 207 | 0.0 | 1.6 | 0.00 | 0.00 | 0.00 | 82 | 1019.3 |
| 20260831071348 | 26 | 176 | 3.2 | 3.2 | 0.00 | 0.00 | 0.00 | 81 | 1019.2 |
| 20260831070843 | 26 | 176 | 3.2 | 3.2 | 0.00 | 0.00 | 0.00 | 81 | 1019.1 |
| 20260831070342 | -17 | 0.0 | 0.0 | 0.00 | 0.00 | 0.00 | 1019.3 | ||
| 20260831065842 | -17 | 0.0 | 0.0 | 0.00 | 0.00 | 0.00 | 1019.3 | ||
| 20260831065339 | 27 | 207 | 3.2 | 4.8 | 0.00 | 0.00 | 0.00 | 79 | 1019.2 |
| 20260831064835 | 27 | 207 | 3.2 | 4.8 | 0.00 | 0.00 | 0.00 | 79 | 1019.3 |
| 20260831064330 | 27 | 207 | 3.2 | 4.8 | 0.00 | 0.00 | 0.00 | 79 | 1019.4 |
| 20260831063826 | -17 | 0.0 | 0.0 | 0.00 | 0.00 | 0.00 | 1019.2 | ||
| 20260831063326 | -17 | 0.0 | 0.0 | 0.00 | 0.00 | 0.00 | 1019.3 | ||
| 20260831062821 | -17 | 0.0 | 0.0 | 0.00 | 0.00 | 0.00 | 1019.3 | ||
| 20260831062316 | -17 | 0.0 | 0.0 | 0.00 | 0.00 | 0.00 | 1019.4 | ||
| 20260831061815 | 28 | 228 | 4.8 | 4.8 | 0.00 | 0.00 | 0.00 | 76 | 1019.2 |
| 20260831061314 | 28 | 228 | 4.8 | 4.8 | 0.00 | 0.00 | 0.00 | 76 | 1019.4 |
| 20260831060811 | 28 | 228 | 4.8 | 4.8 | 0.00 | 0.00 | 0.00 | 76 | 1019.2 |
| 20260831060310 | 28 | 170 | 8.0 | 12.9 | 0.00 | 0.00 | 0.00 | 75 | 1019.2 |
| 20260831055810 | 28 | 170 | 8.0 | 12.9 | 0.00 | 0.00 | 0.00 | 75 | 1019.0 |
| 20260831055306 | 28 | 170 | 8.0 | 12.9 | 0.00 | 0.00 | 0.00 | 75 | 1019.0 |
| 20260831054800 | 28 | 214 | 6.4 | 11.3 | 0.00 | 0.00 | 0.00 | 75 | 1019.0 |
| 20260831054255 | -17 | 0.0 | 0.0 | 0.00 | 0.00 | 0.00 | 1018.9 | ||
| 20260831053754 | -17 | 0.0 | 0.0 | 0.00 | 0.00 | 0.00 | 1019.0 | ||
| 20260831053253 | -17 | 0.0 | 0.0 | 0.00 | 0.00 | 0.00 | 1018.8 | ||
| 20260831052747 | 28 | 155 | 8.0 | 11.3 | 0.00 | 0.00 | 0.00 | 75 | 1018.7 |
| 20260831052247 | 28 | 155 | 8.0 | 11.3 | 0.00 | 0.00 | 0.00 | 75 | 1018.6 |
| 20260831051744 | 28 | 184 | 4.8 | 8.0 | 0.00 | 0.00 | 0.00 | 75 | 1018.6 |
| 20260831051244 | -17 | 0.0 | 0.0 | 0.00 | 0.00 | 0.00 | 1018.5 | ||
| 20260831050739 | -17 | 0.0 | 0.0 | 0.00 | 0.00 | 0.00 | 1018.8 | ||
| 20260831050237 | -17 | 0.0 | 0.0 | 0.00 | 0.00 | 0.00 | 1018.7 | ||
| 20260831045733 | -17 | 0.0 | 0.0 | 0.00 | 0.00 | 0.00 | 1018.7 | ||
| 20260831045233 | -17 | 0.0 | 0.0 | 0.00 | 0.00 | 0.00 | 1018.5 | ||
| 20260831044727 | 30 | 222 | 6.4 | 9.7 | 0.00 | 0.00 | 0.00 | 70 | 1018.5 |
| 20260831044223 | 30 | 222 | 6.4 | 9.7 | 0.00 | 0.00 | 0.00 | 70 | 1018.5 |
| 20260831043719 | 30 | 222 | 6.4 | 9.7 | 0.00 | 0.00 | 0.00 | 70 | 1018.4 |
| 20260831043214 | -17 | 0.0 | 0.0 | 0.00 | 0.00 | 0.00 | 1018.5 | ||
| 20260831042713 | 30 | 190 | 11.3 | 12.9 | 0.00 | 0.00 | 0.00 | 68 | 1018.3 |
| 20260831042208 | 30 | 190 | 11.3 | 12.9 | 0.00 | 0.00 | 0.00 | 68 | 1018.6 |
| 20260831041703 | 30 | 190 | 11.3 | 12.9 | 0.00 | 0.00 | 0.00 | 68 | 1018.4 |
| 20260831041202 | -17 | 0.0 | 0.0 | 0.00 | 0.00 | 0.00 | 1018.3 | ||
| 20260831040657 | -17 | 0.0 | 0.0 | 0.00 | 0.00 | 0.00 | 1018.6 | ||
| 20260831040156 | -17 | 0.0 | 0.0 | 0.00 | 0.00 | 0.00 | 1018.6 |